SCP
-0 0 0 -0 -0 -0 -0 0 -0 -0 -0 -0 -0 -0 -0 -0 -0 -0 -0 -0 -0 -0 -0 -0 -0 -0 0 0 0 0 0 0 0 0 0 0 0 0 0 0 0 0 0
-0 0 -0 -0 -0 -0 -0 -0 -0 -0 -0 -0 -0 -0 -0 -0 -0 -0 -0 -0 -0 -0 -0 -0 -0 -0 -0 -0 -0 -0 0 0 0 0 0 0 0 0 0 0 0 0 0
-0 0 0 -0 -0 -0 -0 -0 -0 -0 -0 -0 -0 -0 -0 -0 -0 -0 -0 -0 -0 -0 -0 -0 -0 -0 -0 -0 -0 -0 -0 0 -0 -0 -0 0 0 0 0 0 0 0 0
0 0 0 -0 -0 -0 -0 -0 -0 -0 -0 -0 -0 -0 -0 -0 -0 -0 -0 -0 -0 -0 -0 -0 -0 -0 -0 -0 -0 -0 -0 -0 -0 -0 0 0 0 0 0 0 0 0 0
0 0 0 0 -0 -0 -0 -0 -0 -0 -0 -0 -0 -0 -0 -0 -0 -0 -0 -0 -0 -0 -0 -0 0 0 0 0 0 -0 -0 -0 -0 -0 0 0 0 -0 0 0 0 0 0
0 0 0 0 -0 -0 -0 -0 -0 0 -0 -0 -0 -0 -0 -0 -0 -0 0 0 0 0 0 0 0 0 0 0 -0 -0 -0 -0 -0 0 0 0 0 0 0 -0 -0 0 0
0 0 0 0 0 -0 -0 -0 -0 -0 -0 -0 -0 -0 -0 -0 -0 0 0 0 0 0 0 0 0 0 0 0 -0 -0 -0 -0 0 0 0 0 -0 -0 -0 -0 -0 -0 -0
0 0 0 0 0 0 0 0 0 0 0 0 0 0 0 0 0 0 0 0 0 0 0 0 0 0 0 0 0 0 0 0 0 0 0 0 -0 -0 -0 -0 -0 0 0
0 0 0 0 0 0 0 0 0 0 0 0 0 0 0 0 0 0 0 0 0 0 0 0 0 0 0 0 0 0 0 0 0 0 0 0 0 0 0 0 0 0 0
0 0 0 0 0 0 0 0 0 0 0 0 0 0 0 0 0 0 0 0 0 0 0 0 0 0 0 0 0 0 0 0 0 0 0 0 0 0 0 0 0 0 0
0 0 0 0 0 0 0 0 0 0 0 0 0 0 0 0 0 0 0 0 0 0 0 0 0 0 0 0 0 0 0 0 0 0 0 0 0 0 0 0 0 0 0
0 0 0 0 0 0 0 0 0 0 0 0 0 0 0 0 0 0 0 0 0 0 0 0 0 0 0 0 0 0 0 0 0 0 0 0 0 0 0 0 0 0 0
0 0 0 0 0 0 0 0 0 0 0 0 0 0 0 0 0 0 0 0 0 0 0 0 0 0 0 0 0 0 0 0 0 0 0 0 0 0 0 0 0 0 0
0 0 0 0 0 0 0 0 0 0 0 0 0 0 0 0 0 0 0 0 0 0 0 0 0 0 0 0 0 0 0 0 0 0 0 0 0 0 0 0 0 0 0
0 0 0 0 0 0 0 0 0 0 0 0 0 0 0 0 0 0 0 0 0 0 0 0 0 0 0 0 0 0 0 0 0 0 0 0 0 0 0 0 0 0 0
0 0 0 0 0 0 0 0 0 0 0 0 0 0 0 0 0 0 0 0 0 0 0 0 0 0 0 0 0 0 0 0 0 0 0 0 0 0 0 0 0 0 0
0 0 0 0 0 0 0 0 0 0 0 0 0 0 0 0 0 0 0 0 0 0 0 0 0 0 0 0 0 0 0 0 0 0 0 0 0 0 0 0 0 0 0
0 0 0 0 0 0 0 0 0 0 0 0 0 0 0 0 0 0 0 0 0 0 0 0 0 0 0 0 0 0 0 0 0 0 0 0 0 0 0 0 0 0 0
0 0 0 0 0 0 0 0 0 0 0 0 0 0 0 0 0 0 0 0 0 0 0 0 0 0 0 0 0 0 0 0 0 0 0 0 0 0 0 0 0 0 0
0 0 0 0 0 0 0 0 0 0 0 0 0 0 0 0 0 0 0 0 0 0 0 0 0 0 0 0 0 0 0 0 0 0 0 0 0 0 0 0 0 0 0
0 0 0 0 0 0 0 0 0 0 0 0 0 0 0 0 0 0 0 0 0 0 0 0 0 0 0 0 0 0 0 0 0 0 0 0 0 0 0 0 0 0 0
0 0 0 0 0 0 0 0 0 0 0 0 0 0 0 0 0 0 0 0 0 0 0 0 0 0 0 0 0 0 0 0 0 0 0 0 0 0 0 0 0 0 0
0 0 0 0 0 0 0 0 0 0 0 0 0 0 0 0 0 0 0 0 0 0 0 0 0 0 0 0 0 0 0 0 0 0 0 0 0 0 0 0 0 0 0
0 0 0 0 0 0 0 0 0 0 0 0 0 0 0 0 0 0 0 0 0 0 0 0 0 0 0 0 0 0 0 0 0 0 0 0 0 0 0 0 0 0 0
0 0 0 0 0 0 0 0 0 0 0 0 0 0 0 0 0 0 0 0 0 0 0 0 0 0 0 0 0 0 0 0 0 0 0 0 0 0 0 0 0 0 0
0 0 0 0 0 0 0 0 0 0 0 0 0 0 0 0 0 0 0 0 0 0 0 0 0 0 0 0 0 0 0 0 0 0 0 0 0 -0 0 0 0 0 -0
Wind_Speed_500mb
40 33 27 27 29 29 28 24 21 19 19 17 17 17 18 15 13 12 11 10 8 7 7 7 8 6 4 4 5 5 5 4 5 5 4 3 3 3 4 6 9 8 8
29 33 28 26 27 29 32 29 24 22 21 21 21 19 20 18 17 15 12 12 10 10 10 12 12 9 8 8 8 5 5 4 4 3 2 2 3 3 6 6 11 11 8
31 30 30 30 29 30 27 24 26 26 23 20 18 23 22 18 18 17 17 16 15 16 17 17 16 12 13 14 14 12 10 8 5 6 6 6 5 3 2 3 6 8 8
29 33 33 33 30 27 31 35 31 29 28 23 26 24 20 20 19 18 18 16 18 22 23 23 20 17 19 19 18 18 14 10 8 8 8 8 8 4 6 5 7 10 13
32 35 36 36 36 34 31 33 33 31 30 29 25 21 21 21 19 18 17 16 19 20 20 20 20 18 19 22 23 22 20 17 13 12 12 11 12 7 6 13 16 18 16
35 38 38 38 39 38 32 31 30 31 31 29 23 21 20 19 18 16 16 17 17 18 17 15 14 14 15 19 20 20 21 20 21 19 17 15 13 12 9 12 13 14 13
38 43 42 41 40 36 34 32 31 31 25 22 21 21 19 18 16 15 13 12 10 8 6 5 5 7 8 8 9 12 15 18 20 23 21 18 17 9 11 16 19 19 16
36 43 43 43 41 38 36 32 31 29 26 24 23 22 20 19 17 15 12 10 7 4 3 2 4 4 6 8 8 8 9 12 17 22 23 24 24 23 18 18 19 18 17
40 46 45 45 44 42 40 37 35 31 28 26 25 22 20 19 18 17 15 12 8 5 3 5 7 10 12 12 11 10 9 9 13 18 21 24 25 29 31 29 26 22 21
45 49 50 48 47 47 44 42 38 35 32 30 28 25 21 19 18 15 14 11 7 4 4 7 11 13 14 15 16 16 14 11 12 15 17 22 27 30 34 36 35 34 30
51 54 55 55 52 50 49 47 45 42 38 36 34 32 29 26 24 21 16 12 10 9 8 10 11 13 16 18 18 18 17 16 16 17 16 17 23 27 32 34 36 37 38
54 55 58 60 58 57 55 53 50 48 44 42 40 38 36 33 30 25 20 16 15 15 15 16 16 18 20 22 23 23 22 20 19 21 21 19 19 20 23 28 29 31 31
53 58 58 60 62 62 61 58 56 52 48 46 44 42 40 37 32 28 24 22 20 18 17 18 19 20 23 24 25 25 24 22 22 23 26 24 23 23 24 25 25 26 29
60 61 62 63 64 65 65 64 60 57 54 52 49 47 43 39 35 32 28 25 22 18 18 18 19 21 23 25 27 29 27 25 23 24 25 25 26 25 26 26 25 27 29
68 64 65 66 67 68 70 69 67 63 59 56 55 52 48 45 41 36 32 29 24 22 22 22 22 23 24 25 26 26 24 23 24 23 25 25 25 24 24 25 27 26 26
72 71 70 71 71 72 73 72 72 68 63 63 61 57 53 49 45 40 37 32 29 28 25 25 24 23 23 23 24 23 24 23 23 22 24 25 23 24 25 24 25 27 25
78 75 75 76 76 78 77 76 76 72 70 70 65 62 58 54 49 45 40 36 34 31 29 29 27 26 25 23 23 24 24 23 23 23 20 19 18 17 18 17 18 17 15
85 84 81 81 83 82 83 81 79 77 75 74 70 67 63 59 55 51 47 43 39 36 34 32 29 28 28 25 22 23 23 23 23 18 18 10 6 7 7 4 4 7 7
84 84 85 86 86 86 87 85 82 79 80 78 75 72 68 64 60 56 52 49 45 41 38 35 31 30 30 29 26 25 26 24 17 16 8 1 10 10 11 12 13 14 13
89 86 85 86 88 88 91 90 86 83 83 82 80 79 73 69 64 61 57 55 51 46 43 38 35 33 33 31 29 27 26 23 15 12 9 16 8 12 15 16 17 15 18
93 90 89 86 90 94 99 98 95 95 90 90 87 84 79 74 70 67 65 61 57 51 46 43 39 37 35 33 32 27 25 14 11 19 11 9 14 11 16 15 16 27 34
93 95 86 91 96 98 101 97 99 97 97 91 90 87 84 80 76 73 71 66 60 56 53 49 44 39 36 32 29 29 10 20 17 17 39 15 7 25 16 25 29 34 38
81 87 87 91 95 99 102 100 101 99 97 97 97 93 92 87 82 78 74 69 64 62 58 52 47 42 37 30 26 18 10 8 13 24 14 23 16 27 32 28 27 30 37
70 71 75 81 90 97 104 106 105 105 103 102 97 93 93 90 86 82 77 74 70 66 63 55 50 46 40 33 28 26 25 27 13 13 17 23 36 38 34 35 38 39 40
63 59 58 68 82 91 101 106 105 104 102 98 93 95 93 90 87 84 82 78 76 71 65 61 57 50 43 38 33 30 29 30 31 28 40 35 46 44 43 44 44 44 43
59 58 62 70 76 85 93 105 107 103 105 97 96 93 90 91 90 88 85 82 78 73 69 64 58 53 47 41 37 35 34 31 31 32 38 54 57 57 50 51 53 49 52
Wind_Direction_500mb
190 188 188 189 186 185 189 192 192 189 188 189 189 184 188 195 205 202 196 199 213 217 214 247 257 262 293 306 296 299 321 344 349 357 354 0 17 33 18 7 20 21 33
191 188 189 191 188 194 197 198 199 203 197 192 198 209 212 210 211 218 223 221 216 229 237 247 260 272 267 255 260 280 268 262 252 275 301 320 328 10 10 358 1 0 353
183 184 186 188 186 195 196 194 188 192 193 193 199 219 214 203 208 218 221 223 227 239 248 250 255 258 256 250 245 236 239 239 236 230 221 222 245 301 88 352 20 339 324
189 187 189 192 192 186 179 182 187 190 193 197 210 209 212 222 225 230 238 241 239 242 247 260 270 269 266 263 266 262 259 257 252 243 234 225 224 217 218 247 290 320 325
193 193 193 195 197 202 203 199 201 208 207 217 228 225 232 241 245 243 243 245 247 256 266 274 280 280 276 274 268 264 264 261 253 248 240 228 232 209 253 259 268 279 291
195 197 198 200 201 206 208 212 213 215 217 229 234 237 238 235 234 236 240 241 250 259 271 278 286 282 278 278 281 280 271 261 252 246 241 238 236 249 260 278 272 274 286
200 198 201 203 207 210 214 219 221 226 231 226 226 224 228 236 244 246 241 237 230 229 245 274 293 312 313 306 295 287 280 270 255 246 242 233 228 227 264 271 281 279 281
211 206 205 207 209 213 219 222 220 223 224 222 222 221 220 221 221 217 212 211 212 232 266 316 327 326 323 321 312 294 281 270 265 255 242 237 230 221 216 239 265 274 270
210 214 215 213 213 216 218 218 218 220 226 232 234 229 221 211 204 198 191 191 193 200 259 317 329 335 338 334 333 326 317 296 275 262 250 239 233 235 242 252 255 264 257
216 216 220 222 220 219 217 216 219 221 223 226 229 228 223 214 209 205 201 197 202 225 282 312 327 332 334 333 333 330 324 311 288 270 256 250 243 241 246 253 262 269 268
219 220 222 224 224 222 220 219 218 219 222 222 220 217 216 218 218 219 222 228 246 266 290 307 320 329 331 331 331 325 316 307 294 285 274 261 254 251 254 259 266 271 274
227 226 225 224 225 225 223 222 221 221 220 219 217 218 218 218 219 221 228 240 255 271 287 302 316 325 330 332 329 323 314 302 290 285 281 273 267 264 259 259 263 269 272
241 232 233 229 228 227 226 226 226 225 225 223 220 220 219 220 220 220 226 235 246 259 274 288 299 310 317 319 319 316 311 302 291 281 278 277 272 270 269 266 267 271 276
248 242 238 235 232 231 228 229 230 229 228 226 225 225 225 225 225 226 233 244 256 268 280 290 299 304 309 314 317 318 315 307 297 287 281 276 274 272 273 276 275 271 274
247 246 242 239 237 235 231 231 229 228 228 228 227 227 227 226 228 230 235 242 251 264 272 277 283 291 298 308 314 317 312 304 298 290 283 278 275 274 272 271 277 280 282
249 246 245 242 241 238 236 234 233 229 228 227 227 228 227 226 228 231 235 238 244 251 259 267 276 286 298 309 316 319 313 308 296 290 285 284 279 274 268 264 264 272 277
257 252 248 245 242 241 239 237 235 232 229 229 229 228 228 229 230 231 234 240 245 251 259 268 275 284 293 304 317 323 320 311 303 298 291 287 290 286 283 283 282 283 285
256 254 251 246 244 242 241 239 236 233 231 231 230 230 229 229 230 231 234 238 242 248 255 261 269 280 286 295 305 317 325 318 306 294 287 280 303 324 314 328 283 282 275
260 256 252 248 245 244 241 239 237 236 234 234 232 232 231 230 230 231 233 235 239 243 250 257 265 274 283 292 304 314 318 319 297 283 229 176 328 292 285 296 298 305 315
263 258 253 250 245 242 241 238 235 234 234 234 232 233 232 231 231 232 234 235 239 243 248 254 261 270 279 288 298 308 314 314 289 230 210 299 310 314 298 297 302 307 320
265 256 252 250 246 238 236 233 231 231 232 232 231 232 232 232 232 233 234 236 238 241 246 250 257 265 274 282 292 300 307 297 279 222 308 313 312 346 332 320 315 310 310
263 259 252 252 245 241 238 236 233 232 231 233 232 230 231 231 232 233 234 236 238 240 243 247 252 260 267 275 285 299 278 292 264 230 303 296 250 337 340 324 315 317 317
268 262 256 254 249 241 238 231 231 231 232 231 230 229 230 230 231 234 235 235 237 239 242 245 250 256 262 268 277 278 279 226 251 287 257 283 267 313 321 320 321 322 318
278 273 266 260 252 241 234 231 229 231 230 234 235 233 231 230 231 233 234 236 237 238 240 243 247 252 258 265 269 272 271 270 281 278 268 261 290 307 315 323 324 327 327
282 271 265 253 249 245 239 233 229 230 233 236 236 234 234 233 233 234 235 236 236 237 238 240 243 248 253 258 262 265 265 269 275 276 291 285 296 303 319 324 327 329 330
289 270 251 247 243 242 237 234 231 230 233 232 232 234 235 234 234 235 235 236 237 238 239 242 244 245 248 252 259 265 269 268 273 276 285 297 305 309 318 322 325 331 329
Wind_Speed_850mb
40 33 27 27 29 29 28 24 21 19 19 17 17 17 18 15 13 12 11 10 8 7 7 7 8 6 4 4 5 5 5 4 5 5 4 3 3 3 4 6 9 8 8
29 33 28 26 27 29 32 29 24 22 21 21 21 19 20 18 17 15 12 12 10 10 10 12 12 9 8 8 8 5 5 4 4 3 2 2 3 3 6 6 11 11 8
31 30 30 30 29 30 27 24 26 26 23 20 18 23 22 18 18 17 17 16 15 16 17 17 16 12 13 14 14 12 10 8 5 6 6 6 5 3 2 3 6 8 8
29 33 33 33 30 27 31 35 31 29 28 23 26 24 20 20 19 18 18 16 18 22 23 23 20 17 19 19 18 18 14 10 8 8 8 8 8 4 6 5 7 10 13
32 35 36 36 36 34 31 33 33 31 30 29 25 21 21 21 19 18 17 16 19 20 20 20 20 18 19 22 23 22 20 17 13 12 12 11 12 7 6 13 16 18 16
35 38 38 38 39 38 32 31 30 31 31 29 23 21 20 19 18 16 16 17 17 18 17 15 14 14 15 19 20 20 21 20 21 19 17 15 13 12 9 12 13 14 13
38 43 42 41 40 36 34 32 31 31 25 22 21 21 19 18 16 15 13 12 10 8 6 5 5 7 8 8 9 12 15 18 20 23 21 18 17 9 11 16 19 19 16
36 43 43 43 41 38 36 32 31 29 26 24 23 22 20 19 17 15 12 10 7 4 3 2 4 4 6 8 8 8 9 12 17 22 23 24 24 23 18 18 19 18 17
40 46 45 45 44 42 40 37 35 31 28 26 25 22 20 19 18 17 15 12 8 5 3 5 7 10 12 12 11 10 9 9 13 18 21 24 25 29 31 29 26 22 21
45 49 50 48 47 47 44 42 38 35 32 30 28 25 21 19 18 15 14 11 7 4 4 7 11 13 14 15 16 16 14 11 12 15 17 22 27 30 34 36 35 34 30
51 54 55 55 52 50 49 47 45 42 38 36 34 32 29 26 24 21 16 12 10 9 8 10 11 13 16 18 18 18 17 16 16 17 16 17 23 27 32 34 36 37 38
54 55 58 60 58 57 55 53 50 48 44 42 40 38 36 33 30 25 20 16 15 15 15 16 16 18 20 22 23 23 22 20 19 21 21 19 19 20 23 28 29 31 31
53 58 58 60 62 62 61 58 56 52 48 46 44 42 40 37 32 28 24 22 20 18 17 18 19 20 23 24 25 25 24 22 22 23 26 24 23 23 24 25 25 26 29
60 61 62 63 64 65 65 64 60 57 54 52 49 47 43 39 35 32 28 25 22 18 18 18 19 21 23 25 27 29 27 25 23 24 25 25 26 25 26 26 25 27 29
68 64 65 66 67 68 70 69 67 63 59 56 55 52 48 45 41 36 32 29 24 22 22 22 22 23 24 25 26 26 24 23 24 23 25 25 25 24 24 25 27 26 26
72 71 70 71 71 72 73 72 72 68 63 63 61 57 53 49 45 40 37 32 29 28 25 25 24 23 23 23 24 23 24 23 23 22 24 25 23 24 25 24 25 27 25
78 75 75 76 76 78 77 76 76 72 70 70 65 62 58 54 49 45 40 36 34 31 29 29 27 26 25 23 23 24 24 23 23 23 20 19 18 17 18 17 18 17 15
85 84 81 81 83 82 83 81 79 77 75 74 70 67 63 59 55 51 47 43 39 36 34 32 29 28 28 25 22 23 23 23 23 18 18 10 6 7 7 4 4 7 7
84 84 85 86 86 86 87 85 82 79 80 78 75 72 68 64 60 56 52 49 45 41 38 35 31 30 30 29 26 25 26 24 17 16 8 1 10 10 11 12 13 14 13
89 86 85 86 88 88 91 90 86 83 83 82 80 79 73 69 64 61 57 55 51 46 43 38 35 33 33 31 29 27 26 23 15 12 9 16 8 12 15 16 17 15 18
93 90 89 86 90 94 99 98 95 95 90 90 87 84 79 74 70 67 65 61 57 51 46 43 39 37 35 33 32 27 25 14 11 19 11 9 14 11 16 15 16 27 34
93 95 86 91 96 98 101 97 99 97 97 91 90 87 84 80 76 73 71 66 60 56 53 49 44 39 36 32 29 29 10 20 17 17 39 15 7 25 16 25 29 34 38
81 87 87 91 95 99 102 100 101 99 97 97 97 93 92 87 82 78 74 69 64 62 58 52 47 42 37 30 26 18 10 8 13 24 14 23 16 27 32 28 27 30 37
70 71 75 81 90 97 104 106 105 105 103 102 97 93 93 90 86 82 77 74 70 66 63 55 50 46 40 33 28 26 25 27 13 13 17 23 36 38 34 35 38 39 40
63 59 58 68 82 91 101 106 105 104 102 98 93 95 93 90 87 84 82 78 76 71 65 61 57 50 43 38 33 30 29 30 31 28 40 35 46 44 43 44 44 44 43
59 58 62 70 76 85 93 105 107 103 105 97 96 93 90 91 90 88 85 82 78 73 69 64 58 53 47 41 37 35 34 31 31 32 38 54 57 57 50 51 53 49 52
Wind_Direction_850mb
190 188 188 189 186 185 189 192 192 189 188 189 189 184 188 195 205 202 196 199 213 217 214 247 257 262 293 306 296 299 321 344 349 357 354 0 17 33 18 7 20 21 33
191 188 189 191 188 194 197 198 199 203 197 192 198 209 212 210 211 218 223 221 216 229 237 247 260 272 267 255 260 280 268 262 252 275 301 320 328 10 10 358 1 0 353
183 184 186 188 186 195 196 194 188 192 193 193 199 219 214 203 208 218 221 223 227 239 248 250 255 258 256 250 245 236 239 239 236 230 221 222 245 301 88 352 20 339 324
189 187 189 192 192 186 179 182 187 190 193 197 210 209 212 222 225 230 238 241 239 242 247 260 270 269 266 263 266 262 259 257 252 243 234 225 224 217 218 247 290 320 325
193 193 193 195 197 202 203 199 201 208 207 217 228 225 232 241 245 243 243 245 247 256 266 274 280 280 276 274 268 264 264 261 253 248 240 228 232 209 253 259 268 279 291
195 197 198 200 201 206 208 212 213 215 217 229 234 237 238 235 234 236 240 241 250 259 271 278 286 282 278 278 281 280 271 261 252 246 241 238 236 249 260 278 272 274 286
200 198 201 203 207 210 214 219 221 226 231 226 226 224 228 236 244 246 241 237 230 229 245 274 293 312 313 306 295 287 280 270 255 246 242 233 228 227 264 271 281 279 281
211 206 205 207 209 213 219 222 220 223 224 222 222 221 220 221 221 217 212 211 212 232 266 316 327 326 323 321 312 294 281 270 265 255 242 237 230 221 216 239 265 274 270
210 214 215 213 213 216 218 218 218 220 226 232 234 229 221 211 204 198 191 191 193 200 259 317 329 335 338 334 333 326 317 296 275 262 250 239 233 235 242 252 255 264 257
216 216 220 222 220 219 217 216 219 221 223 226 229 228 223 214 209 205 201 197 202 225 282 312 327 332 334 333 333 330 324 311 288 270 256 250 243 241 246 253 262 269 268
219 220 222 224 224 222 220 219 218 219 222 222 220 217 216 218 218 219 222 228 246 266 290 307 320 329 331 331 331 325 316 307 294 285 274 261 254 251 254 259 266 271 274
227 226 225 224 225 225 223 222 221 221 220 219 217 218 218 218 219 221 228 240 255 271 287 302 316 325 330 332 329 323 314 302 290 285 281 273 267 264 259 259 263 269 272
241 232 233 229 228 227 226 226 226 225 225 223 220 220 219 220 220 220 226 235 246 259 274 288 299 310 317 319 319 316 311 302 291 281 278 277 272 270 269 266 267 271 276
248 242 238 235 232 231 228 229 230 229 228 226 225 225 225 225 225 226 233 244 256 268 280 290 299 304 309 314 317 318 315 307 297 287 281 276 274 272 273 276 275 271 274
247 246 242 239 237 235 231 231 229 228 228 228 227 227 227 226 228 230 235 242 251 264 272 277 283 291 298 308 314 317 312 304 298 290 283 278 275 274 272 271 277 280 282
249 246 245 242 241 238 236 234 233 229 228 227 227 228 227 226 228 231 235 238 244 251 259 267 276 286 298 309 316 319 313 308 296 290 285 284 279 274 268 264 264 272 277
257 252 248 245 242 241 239 237 235 232 229 229 229 228 228 229 230 231 234 240 245 251 259 268 275 284 293 304 317 323 320 311 303 298 291 287 290 286 283 283 282 283 285
256 254 251 246 244 242 241 239 236 233 231 231 230 230 229 229 230 231 234 238 242 248 255 261 269 280 286 295 305 317 325 318 306 294 287 280 303 324 314 328 283 282 275
260 256 252 248 245 244 241 239 237 236 234 234 232 232 231 230 230 231 233 235 239 243 250 257 265 274 283 292 304 314 318 319 297 283 229 176 328 292 285 296 298 305 315
263 258 253 250 245 242 241 238 235 234 234 234 232 233 232 231 231 232 234 235 239 243 248 254 261 270 279 288 298 308 314 314 289 230 210 299 310 314 298 297 302 307 320
265 256 252 250 246 238 236 233 231 231 232 232 231 232 232 232 232 233 234 236 238 241 246 250 257 265 274 282 292 300 307 297 279 222 308 313 312 346 332 320 315 310 310
263 259 252 252 245 241 238 236 233 232 231 233 232 230 231 231 232 233 234 236 238 240 243 247 252 260 267 275 285 299 278 292 264 230 303 296 250 337 340 324 315 317 317
268 262 256 254 249 241 238 231 231 231 232 231 230 229 230 230 231 234 235 235 237 239 242 245 250 256 262 268 277 278 279 226 251 287 257 283 267 313 321 320 321 322 318
278 273 266 260 252 241 234 231 229 231 230 234 235 233 231 230 231 233 234 236 237 238 240 243 247 252 258 265 269 272 271 270 281 278 268 261 290 307 315 323 324 327 327
282 271 265 253 249 245 239 233 229 230 233 236 236 234 234 233 233 234 235 236 236 237 238 240 243 248 253 258 262 265 265 269 275 276 291 285 296 303 319 324 327 329 330
289 270 251 247 243 242 237 234 231 230 233 232 232 234 235 234 234 235 235 236 237 238 239 242 244 245 248 252 259 265 269 268 273 276 285 297 305 309 318 322 325 331 329